Time,TemperatureF,DewpointF,PressureIn,WindDirection,WindDirectionDegrees,WindSpeedMPH,WindSpeedGustMPH,Humidity,HourlyPrecipIn,Conditions,Clouds,dailyrainin,SoftwareType,DateUTC
2013-02-07 00:01:00,42.0,39.0,30.09,WSW,248,0.0,0.0,89,0.00,,,0.00,,2013-02-07 08:01:00,
2013-02-07 00:11:00,42.0,39.0,30.09,WSW,248,0.0,0.0,89,0.00,,,0.00,,2013-02-07 08:11:00,
2013-02-07 00:21:00,42.0,39.0,30.09,WSW,248,0.0,0.0,89,0.00,,,0.00,,2013-02-07 08:21:00,
2013-02-07 00:31:00,42.0,39.0,30.09,WSW,248,0.0,0.0,89,0.00,,,0.00,,2013-02-07 08:31:00,
2013-02-07 00:42:00,42.0,39.0,30.09,WSW,248,0.0,0.0,89,0.00,,,0.00,,2013-02-07 08:42:00,
2013-02-07 00:52:00,43.0,40.0,30.09,WSW,248,0.0,2.0,90,0.00,,,0.00,,2013-02-07 08:52:00,
2013-02-07 01:01:00,43.0,40.0,30.09,WSW,248,0.0,0.0,89,0.00,,,0.00,,2013-02-07 09:01:00,
2013-02-07 01:11:00,43.0,40.0,30.09,WSW,248,0.0,0.0,89,0.00,,,0.00,,2013-02-07 09:11:00,
2013-02-07 01:21:00,43.0,40.0,30.09,WSW,248,0.0,0.0,90,0.00,,,0.00,,2013-02-07 09:21:00,
2013-02-07 01:31:00,43.0,40.0,30.09,WSW,248,0.0,1.0,89,0.00,,,0.00,,2013-02-07 09:31:00,
2013-02-07 01:41:00,43.0,40.0,30.09,WSW,248,0.0,1.0,89,0.00,,,0.00,,2013-02-07 09:41:00,
2013-02-07 01:51:00,42.0,39.0,30.09,WSW,246,0.0,2.0,89,0.00,,,0.00,,2013-02-07 09:51:00,
2013-02-07 02:01:00,42.0,39.0,30.09,WSW,246,0.0,0.0,90,0.00,,,0.00,,2013-02-07 10:01:00,
2013-02-07 02:11:00,42.0,39.0,30.09,WSW,246,0.0,0.0,90,0.00,,,0.00,,2013-02-07 10:11:00,
2013-02-07 02:21:00,42.0,39.0,30.08,WSW,246,0.0,0.0,90,0.00,,,0.00,,2013-02-07 10:21:00,
2013-02-07 02:31:00,43.0,41.0,30.08,ESE,109,0.0,3.0,91,0.01,,,0.01,,2013-02-07 10:31:00,
2013-02-07 02:41:00,43.0,41.0,30.08,ESE,109,0.0,3.0,91,0.01,,,0.01,,2013-02-07 10:41:00,
2013-02-07 02:51:00,45.0,43.0,30.08,NNW,341,0.0,2.0,91,0.01,,,0.01,,2013-02-07 10:51:00,
2013-02-07 03:01:00,45.0,42.0,30.08,NNE,16,0.0,3.0,90,0.01,,,0.01,,2013-02-07 11:01:00,
2013-02-07 03:11:00,45.0,42.0,30.08,NNE,16,0.0,3.0,90,0.01,,,0.01,,2013-02-07 11:11:00,
2013-02-07 03:22:00,45.0,42.0,30.08,NE,34,0.0,4.0,89,0.01,,,0.01,,2013-02-07 11:22:00,
2013-02-07 03:32:00,44.0,40.0,30.08,NE,34,0.0,2.0,87,0.00,,,0.01,,2013-02-07 11:32:00,
2013-02-07 03:43:00,44.0,40.0,30.08,NE,34,0.0,2.0,87,0.00,,,0.01,,2013-02-07 11:43:00,
2013-02-07 03:52:00,42.0,38.0,30.09,NE,34,0.0,0.0,87,0.00,,,0.01,,2013-02-07 11:52:00,
2013-02-07 04:01:00,42.0,39.0,30.08,NE,34,0.0,0.0,88,0.00,,,0.01,,2013-02-07 12:01:00,
2013-02-07 04:11:00,42.0,39.0,30.08,NE,34,0.0,0.0,88,0.00,,,0.01,,2013-02-07 12:11:00,
2013-02-07 04:21:00,43.0,40.0,30.08,NE,36,0.0,3.0,90,0.00,,,0.01,,2013-02-07 12:21:00,
2013-02-07 04:32:00,43.0,39.0,30.09,NE,36,0.0,1.0,87,0.00,,,0.01,,2013-02-07 12:32:00,
2013-02-07 04:42:00,43.0,39.0,30.09,NE,36,0.0,1.0,87,0.00,,,0.01,,2013-02-07 12:42:00,
2013-02-07 04:52:00,42.0,38.0,30.09,NE,36,0.0,0.0,86,0.00,,,0.01,,2013-02-07 12:52:00,
2013-02-07 05:02:00,41.0,37.0,30.09,NE,36,0.0,0.0,87,0.00,,,0.01,,2013-02-07 13:02:00,
2013-02-07 05:11:00,41.0,37.0,30.09,NE,36,0.0,0.0,87,0.00,,,0.01,,2013-02-07 13:11:00,
2013-02-07 05:21:00,40.0,36.0,30.09,NE,36,0.0,0.0,87,0.00,,,0.01,,2013-02-07 13:21:00,
2013-02-07 05:32:00,41.0,38.0,30.09,NE,36,0.0,1.0,89,0.00,,,0.01,,2013-02-07 13:32:00,
2013-02-07 05:42:00,41.0,38.0,30.09,NE,36,0.0,1.0,89,0.00,,,0.01,,2013-02-07 13:42:00,
2013-02-07 05:51:00,40.0,36.0,30.09,NE,36,0.0,1.0,87,0.00,,,0.01,,2013-02-07 13:51:00,
2013-02-07 06:01:00,40.0,37.0,30.10,NE,36,0.0,1.0,88,0.00,,,0.01,,2013-02-07 14:01:00,
2013-02-07 06:11:00,40.0,37.0,30.10,NE,36,0.0,1.0,88,0.00,,,0.01,,2013-02-07 14:11:00,
2013-02-07 06:21:00,41.0,37.0,30.10,NE,46,0.0,2.0,87,0.00,,,0.01,,2013-02-07 14:21:00,
2013-02-07 06:31:00,41.0,37.0,30.10,NNE,15,0.0,1.0,86,0.00,,,0.01,,2013-02-07 14:31:00,
2013-02-07 06:41:00,41.0,37.0,30.10,NNE,15,0.0,1.0,86,0.00,,,0.01,,2013-02-07 14:41:00,
2013-02-07 06:52:00,41.0,37.0,30.10,NNE,24,0.0,2.0,86,0.00,,,0.01,,2013-02-07 14:52:00,
2013-02-07 07:01:00,40.0,36.0,30.11,NNE,24,0.0,0.0,85,0.00,,,0.01,,2013-02-07 15:01:00,
2013-02-07 07:11:00,40.0,36.0,30.11,NNE,24,0.0,0.0,85,0.00,,,0.01,,2013-02-07 15:11:00,
2013-02-07 07:21:00,40.0,36.0,30.11,NNE,24,0.0,0.0,86,0.00,,,0.01,,2013-02-07 15:21:00,
2013-02-07 07:31:00,40.0,36.0,30.11,NNE,24,0.0,0.0,86,0.00,,,0.01,,2013-02-07 15:31:00,
2013-02-07 07:42:00,40.0,36.0,30.11,NNE,24,0.0,0.0,86,0.00,,,0.01,,2013-02-07 15:42:00,
2013-02-07 07:52:00,39.0,36.0,30.12,NNE,24,0.0,0.0,88,0.00,,,0.01,,2013-02-07 15:52:00,
2013-02-07 08:01:00,40.0,37.0,30.13,NNE,24,0.0,0.0,89,0.00,,,0.01,,2013-02-07 16:01:00,
2013-02-07 08:11:00,40.0,37.0,30.13,NNE,24,0.0,0.0,89,0.00,,,0.01,,2013-02-07 16:11:00,
2013-02-07 08:21:00,42.0,39.0,30.13,NNE,24,0.0,0.0,89,0.00,,,0.01,,2013-02-07 16:21:00,
2013-02-07 08:31:00,44.0,39.0,30.13,NNE,24,0.0,0.0,84,0.00,,,0.01,,2013-02-07 16:31:00,
2013-02-07 08:41:00,44.0,39.0,30.13,NNE,24,0.0,0.0,84,0.00,,,0.01,,2013-02-07 16:41:00,
2013-02-07 08:52:00,47.0,41.0,30.13,NNE,24,0.0,1.0,78,0.00,,,0.01,,2013-02-07 16:52:00,
2013-02-07 09:01:00,50.0,39.0,30.13,ENE,76,0.0,5.0,67,0.00,,,0.01,,2013-02-07 17:01:00,
2013-02-07 09:11:00,50.0,39.0,30.13,ENE,76,0.0,5.0,67,0.00,,,0.01,,2013-02-07 17:11:00,
2013-02-07 09:21:00,51.0,39.0,30.13,East,86,1.0,5.0,64,0.00,,,0.01,,2013-02-07 17:21:00,
2013-02-07 09:31:00,51.0,39.0,30.13,East,86,1.0,5.0,64,0.00,,,0.01,,2013-02-07 17:31:00,
2013-02-07 09:42:00,51.0,39.0,30.13,East,86,1.0,5.0,64,0.00,,,0.01,,2013-02-07 17:42:00,
2013-02-07 09:52:00,53.0,38.0,30.13,East,84,0.0,5.0,57,0.00,,,0.01,,2013-02-07 17:52:00,
2013-02-07 10:01:00,54.0,36.0,30.13,East,87,0.0,3.0,51,0.00,,,0.01,,2013-02-07 18:01:00,
2013-02-07 10:11:00,54.0,36.0,30.13,East,87,0.0,3.0,51,0.00,,,0.01,,2013-02-07 18:11:00,
2013-02-07 10:22:00,57.0,40.0,30.12,East,94,0.0,3.0,52,0.00,,,0.01,,2013-02-07 18:22:00,
2013-02-07 10:31:00,58.0,37.0,30.12,East,94,0.0,3.0,45,0.00,,,0.01,,2013-02-07 18:31:00,
2013-02-07 10:41:00,58.0,37.0,30.12,East,94,0.0,3.0,45,0.00,,,0.01,,2013-02-07 18:41:00,
2013-02-07 10:51:00,59.0,42.0,30.12,SSW,192,2.0,5.0,54,0.00,,,0.01,,2013-02-07 18:51:00,
2013-02-07 11:01:00,60.0,45.0,30.11,NW,306,0.0,5.0,58,0.00,,,0.01,,2013-02-07 19:01:00,
2013-02-07 11:11:00,60.0,45.0,30.11,NW,306,0.0,5.0,58,0.00,,,0.01,,2013-02-07 19:11:00,
2013-02-07 11:21:00,60.0,46.0,30.11,SW,231,2.0,6.0,60,0.00,,,0.01,,2013-02-07 19:21:00,
2013-02-07 11:31:00,61.0,47.0,30.11,SW,223,0.0,6.0,60,0.00,,,0.01,,2013-02-07 19:31:00,
2013-02-07 11:41:00,61.0,47.0,30.11,SW,223,0.0,6.0,60,0.00,,,0.01,,2013-02-07 19:41:00,
2013-02-07 11:51:00,62.0,47.0,30.09,SSW,203,2.0,5.0,58,0.00,,,0.01,,2013-02-07 19:51:00,
2013-02-07 12:01:00,62.0,46.0,30.09,SSW,209,1.0,7.0,56,0.00,,,0.01,,2013-02-07 20:01:00,
2013-02-07 12:11:00,62.0,46.0,30.09,SSW,209,1.0,7.0,56,0.00,,,0.01,,2013-02-07 20:11:00,
2013-02-07 12:21:00,63.0,47.0,30.08,SW,219,2.0,7.0,55,0.00,,,0.01,,2013-02-07 20:21:00,
2013-02-07 12:31:00,63.0,48.0,30.08,South,190,2.0,8.0,57,0.00,,,0.01,,2013-02-07 20:31:00,
2013-02-07 12:41:00,63.0,48.0,30.08,South,190,2.0,8.0,57,0.00,,,0.01,,2013-02-07 20:41:00,
2013-02-07 12:52:00,63.0,48.0,30.06,SW,226,2.0,8.0,57,0.00,,,0.01,,2013-02-07 20:52:00,
2013-02-07 13:01:00,63.0,47.0,30.05,SSW,212,3.0,9.0,55,0.00,,,0.01,,2013-02-07 21:01:00,
2013-02-07 13:11:00,63.0,47.0,30.05,SSW,212,3.0,9.0,55,0.00,,,0.01,,2013-02-07 21:11:00,
2013-02-07 13:21:00,63.0,48.0,30.04,WSW,257,1.0,9.0,57,0.00,,,0.01,,2013-02-07 21:21:00,
2013-02-07 13:31:00,64.0,47.0,30.04,WNW,303,3.0,10.0,54,0.00,,,0.01,,2013-02-07 21:31:00,
2013-02-07 13:41:00,64.0,47.0,30.04,WNW,303,3.0,10.0,54,0.00,,,0.01,,2013-02-07 21:41:00,
2013-02-07 13:51:00,63.0,48.0,30.03,SSW,213,3.0,10.0,57,0.00,,,0.01,,2013-02-07 21:51:00,
2013-02-07 14:01:00,63.0,48.0,30.03,SW,216,3.0,10.0,58,0.00,,,0.01,,2013-02-07 22:01:00,
2013-02-07 14:11:00,63.0,48.0,30.03,SW,216,3.0,10.0,58,0.00,,,0.01,,2013-02-07 22:11:00,
2013-02-07 14:21:00,61.0,47.0,30.03,SSW,208,3.0,10.0,60,0.00,,,0.01,,2013-02-07 22:21:00,
2013-02-07 14:31:00,61.0,47.0,30.03,SSW,200,4.0,8.0,60,0.00,,,0.01,,2013-02-07 22:31:00,
2013-02-07 14:42:00,61.0,47.0,30.03,SSW,200,4.0,8.0,60,0.00,,,0.01,,2013-02-07 22:42:00,
2013-02-07 14:51:00,61.0,47.0,30.02,SSW,208,2.0,9.0,61,0.00,,,0.01,,2013-02-07 22:51:00,
2013-02-07 15:01:00,60.0,47.0,30.03,SSW,204,4.0,9.0,62,0.00,,,0.01,,2013-02-07 23:01:00,
2013-02-07 15:11:00,60.0,47.0,30.03,SSW,204,4.0,9.0,62,0.00,,,0.01,,2013-02-07 23:11:00,
2013-02-07 15:21:00,59.0,46.0,30.02,West,263,3.0,9.0,61,0.00,,,0.01,,2013-02-07 23:21:00,
2013-02-07 15:31:00,60.0,47.0,30.02,SW,235,3.0,9.0,61,0.00,,,0.01,,2013-02-07 23:31:00,
2013-02-07 15:41:00,60.0,47.0,30.02,SW,235,3.0,9.0,61,0.00,,,0.01,,2013-02-07 23:41:00,
2013-02-07 15:52:00,59.0,46.0,30.01,SW,216,2.0,9.0,61,0.00,,,0.01,,2013-02-07 23:52:00,
2013-02-07 16:01:00,60.0,47.0,30.01,SSW,204,3.0,6.0,62,0.00,,,0.01,,2013-02-08 00:01:00,
2013-02-07 16:11:00,60.0,47.0,30.01,SSW,204,3.0,6.0,62,0.00,,,0.01,,2013-02-08 00:11:00,
2013-02-07 16:21:00,59.0,46.0,30.01,SSW,207,3.0,7.0,62,0.00,,,0.01,,2013-02-08 00:21:00,
2013-02-07 16:31:00,59.0,47.0,30.00,SSW,193,2.0,5.0,65,0.00,,,0.01,,2013-02-08 00:31:00,
2013-02-07 16:41:00,59.0,47.0,30.00,SSW,193,2.0,5.0,65,0.00,,,0.01,,2013-02-08 00:41:00,
2013-02-07 16:52:00,59.0,47.0,30.00,SSW,196,3.0,6.0,64,0.00,,,0.01,,2013-02-08 00:52:00,
2013-02-07 17:01:00,58.0,46.0,30.00,WSW,245,0.0,8.0,64,0.00,,,0.01,,2013-02-08 01:01:00,
2013-02-07 17:11:00,58.0,46.0,30.00,WSW,245,0.0,8.0,64,0.00,,,0.01,,2013-02-08 01:11:00,
2013-02-07 17:21:00,58.0,46.0,29.99,SW,214,2.0,6.0,65,0.00,,,0.01,,2013-02-08 01:21:00,
2013-02-07 17:31:00,58.0,47.0,29.99,SW,219,2.0,9.0,67,0.00,,,0.01,,2013-02-08 01:31:00,
2013-02-07 17:41:00,58.0,47.0,29.99,SW,219,2.0,9.0,67,0.00,,,0.01,,2013-02-08 01:41:00,
2013-02-07 17:51:00,57.0,47.0,29.99,WSW,237,3.0,8.0,68,0.00,,,0.01,,2013-02-08 01:51:00,
2013-02-07 18:01:00,57.0,47.0,29.99,SW,235,0.0,6.0,69,0.00,,,0.01,,2013-02-08 02:01:00,
2013-02-07 18:11:00,57.0,47.0,29.99,SW,235,0.0,6.0,69,0.00,,,0.01,,2013-02-08 02:11:00,
2013-02-07 18:21:00,57.0,47.0,29.99,SW,235,0.0,6.0,69,0.00,,,0.01,,2013-02-08 02:21:00,
2013-02-07 18:31:00,57.0,46.0,29.99,SSW,199,0.0,2.0,67,0.00,,,0.01,,2013-02-08 02:31:00,
2013-02-07 18:42:00,57.0,46.0,29.99,SSW,199,0.0,2.0,67,0.00,,,0.01,,2013-02-08 02:42:00,
2013-02-07 18:52:00,57.0,46.0,29.99,SSW,200,0.0,3.0,67,0.00,,,0.01,,2013-02-08 02:52:00,
2013-02-07 19:01:00,56.0,45.0,29.99,SSW,200,0.0,2.0,66,0.00,,,0.01,,2013-02-08 03:01:00,
2013-02-07 19:11:00,56.0,45.0,29.99,SSW,200,0.0,2.0,66,0.00,,,0.01,,2013-02-08 03:11:00,
2013-02-07 19:22:00,56.0,46.0,29.99,SSW,200,0.0,1.0,68,0.00,,,0.01,,2013-02-08 03:22:00,
2013-02-07 19:31:00,56.0,46.0,29.99,SSW,200,0.0,0.0,69,0.00,,,0.01,,2013-02-08 03:31:00,
2013-02-07 19:41:00,56.0,46.0,29.99,SSW,200,0.0,0.0,69,0.00,,,0.01,,2013-02-08 03:41:00,
2013-02-07 19:51:00,56.0,47.0,29.98,SSW,200,0.0,0.0,71,0.00,,,0.01,,2013-02-08 03:51:00,
2013-02-07 20:01:00,55.0,47.0,29.98,SSW,200,0.0,0.0,73,0.00,,,0.01,,2013-02-08 04:01:00,
2013-02-07 20:11:00,55.0,47.0,29.98,SSW,200,0.0,0.0,73,0.00,,,0.01,,2013-02-08 04:11:00,
2013-02-07 20:21:00,55.0,46.0,29.98,SSW,200,0.0,1.0,72,0.00,,,0.01,,2013-02-08 04:21:00,
2013-02-07 20:31:00,55.0,46.0,29.98,SSW,200,0.0,0.0,72,0.00,,,0.01,,2013-02-08 04:31:00,
2013-02-07 20:41:00,55.0,46.0,29.98,SSW,200,0.0,0.0,72,0.00,,,0.01,,2013-02-08 04:41:00,
2013-02-07 20:51:00,53.0,45.0,29.97,SSW,200,0.0,1.0,73,0.00,,,0.01,,2013-02-08 04:51:00,
2013-02-07 21:01:00,52.0,44.0,29.97,SSW,200,0.0,0.0,75,0.00,,,0.01,,2013-02-08 05:01:00,
2013-02-07 21:11:00,52.0,44.0,29.97,SSW,200,0.0,0.0,75,0.00,,,0.01,,2013-02-08 05:11:00,
2013-02-07 21:22:00,50.0,43.0,29.97,SSW,200,0.0,0.0,77,0.00,,,0.01,,2013-02-08 05:22:00,
2013-02-07 21:31:00,49.0,43.0,29.97,SSW,200,0.0,0.0,80,0.00,,,0.01,,2013-02-08 05:31:00,
2013-02-07 21:41:00,49.0,43.0,29.97,SSW,200,0.0,0.0,80,0.00,,,0.01,,2013-02-08 05:41:00,
2013-02-07 21:52:00,49.0,43.0,29.97,SSW,200,0.0,0.0,80,0.00,,,0.01,,2013-02-08 05:52:00,
2013-02-07 22:01:00,47.0,42.0,29.98,SSW,200,0.0,0.0,82,0.00,,,0.01,,2013-02-08 06:01:00,
2013-02-07 22:11:00,47.0,42.0,29.98,SSW,200,0.0,0.0,82,0.00,,,0.01,,2013-02-08 06:11:00,
2013-02-07 22:21:00,46.0,41.0,29.98,SSW,200,0.0,0.0,83,0.00,,,0.01,,2013-02-08 06:21:00,
2013-02-07 22:31:00,46.0,41.0,29.97,SSW,200,0.0,0.0,84,0.00,,,0.01,,2013-02-08 06:31:00,
2013-02-07 22:41:00,46.0,41.0,29.97,SSW,200,0.0,0.0,84,0.00,,,0.01,,2013-02-08 06:41:00,
2013-02-07 22:51:00,45.0,41.0,29.98,SSW,200,0.0,0.0,85,0.00,,,0.01,,2013-02-08 06:51:00,
2013-02-07 23:01:00,45.0,41.0,29.97,SSW,200,0.0,0.0,85,0.00,,,0.01,,2013-02-08 07:01:00,
2013-02-07 23:11:00,44.0,40.0,29.97,SSW,200,0.0,0.0,86,0.00,,,0.01,,2013-02-08 07:11:00,
2013-02-07 23:21:00,44.0,40.0,29.97,SSW,200,0.0,0.0,86,0.00,,,0.01,,2013-02-08 07:21:00,
2013-02-07 23:31:00,44.0,40.0,29.97,SSW,200,0.0,1.0,86,0.00,,,0.01,,2013-02-08 07:31:00,
2013-02-07 23:41:00,44.0,40.0,29.96,SSW,200,0.0,0.0,86,0.00,,,0.01,,2013-02-08 07:41:00,
2013-02-07 23:51:00,44.0,40.0,29.96,SSW,200,0.0,0.0,86,0.00,,,0.01,,2013-02-08 07:51:00,